Simultaneous Nadir Overpasses (SNOs) Predictions

Prediction of SNOs between GOES-14 and NOAA-20 Satellite Orbit:

Table of predicted SNOs for the next 14.0 days since TLE Epoch: 1/27/2024
Index Date Time (GOES-14) GOES-14 Lat,Lon NOAA-20 Lat,Lon Distance(km) Time Diff (sec)
1 01/27/2024 08:52:03 -0.03,-108.51 0.62,-111.27 314.76 80
2 01/28/2024 08:30:40 -0.03,-108.51 -0.43,-106.75 200.92 80
3 01/29/2024 20:52:37 0.03,-108.51 -0.75,-112.05 403.70 80
4 01/30/2024 20:36:32 0.03,-108.51 0.23,-107.52 112.19 80
5 02/01/2024 08:58:21 -0.03,-108.50 0.96,-112.78 489.54 80
6 02/02/2024 08:36:57 -0.03,-108.49 -0.09,-108.26 26.13 80
7 02/04/2024 20:40:10 0.02,-108.48 -0.09,-109.04 63.43 80
8 02/05/2024 20:24:06 0.02,-108.47 0.91,-104.51 452.08 80
9 02/07/2024 08:45:54 -0.00,-108.45 0.27,-109.77 150.30 80
10 02/08/2024 08:24:29 -0.00,-108.44 -0.73,-105.24 364.84 80
11 02/09/2024 20:46:26 0.00,-108.43 -0.49,-110.54 241.08 80
